This is the latest recevied weather packets stored in our database for station/object KI4FRU. If no packets are shown the sender has not sent any weather packets the latest 10 day(s).
| Time | Temp. | Humidity | Pressure | Rain* | Wind** | Luminosity | Snow |
|---|---|---|---|---|---|---|---|
| 1778094059 | 23.33° C | 86% | 1051.8 hPa | 0 mm | - | 165 W/m² | - |
| 1778093752 | 22.78° C | 91% | 1051.8 hPa | 0 mm | - | 180 W/m² | - |
| 1778093448 | 22.22° C | 92% | 1051.8 hPa | 0 mm | - | 269 W/m² | - |
| 1778093145 | 22.22° C | 89% | 1051.8 hPa | 0 mm | - | 229 W/m² | - |
| 1778092842 | 21.67° C | 92% | 1051.6 hPa | 0 mm | - | 236 W/m² | - |
| 1778092538 | 21.67° C | 93% | 1051.8 hPa | 0 mm | - | 212 W/m² | - |
| 1778092234 | 22.22° C | 94% | 1052 hPa | 0 mm | - | 165 W/m² | - |
| 1778091932 | 22.22° C | 94% | 1051.7 hPa | 0 mm | - | 169 W/m² | - |
| 1778091629 | 21.67° C | 95% | 1051.5 hPa | 0 mm | - | 324 W/m² | - |
| 1778091327 | 21.11° C | 97% | 1051.7 hPa | 0 mm | - | 299 W/m² | - |
| 1778091023 | 21.11° C | 97% | 1051.7 hPa | 0 mm | - | 112 W/m² | - |
| 1778090720 | 20.56° C | 99% | 1052.1 hPa | 0 mm | - | 183 W/m² | - |
| 1778090416 | 20.56° C | 99% | 1052.3 hPa | 0 mm | - | 189 W/m² | - |
| 1778090113 | 20° C | 99% | 1051.8 hPa | 0 mm | - | 212 W/m² | - |
| 1778089809 | 20° C | 99% | 1051.6 hPa | 0 mm | - | 248 W/m² | - |
| 1778089508 | 20° C | 99% | 1051.6 hPa | 0 mm | - | 249 W/m² | - |
| 1778089204 | 20° C | 99% | 1051.8 hPa | 0 mm | - | 261 W/m² | - |
| 1778088902 | 20° C | 99% | 1052.1 hPa | 0 mm | - | 319 W/m² | - |
| 1778088599 | 18.89° C | 99% | 1052.5 hPa | 0 mm | - | 334 W/m² | - |
| 1778088296 | 18.89° C | 99% | 1053.1 hPa | 0 mm | - | 304 W/m² | - |
| 1778087992 | 17.78° C | 99% | 1053.3 hPa | 0 mm | - | 294 W/m² | - |
| 1778087689 | 18.33° C | 99% | 1053 hPa | 0 mm | - | 237 W/m² | - |
| 1778087387 | 18.33° C | 99% | 1053.3 hPa | 0 mm | - | 170 W/m² | - |
| 1778087083 | 17.78° C | 99% | 1054.1 hPa | 0 mm | - | 215 W/m² | - |
| 1778086782 | 17.78° C | 99% | 1053.8 hPa | 0 mm | - | 147 W/m² | - |
* Rain latest hour (hover to see other rain measurements)
** Current wind speed in m/s (hover to see current wind gust speed)